Weather in Bar

Russia / Republic of Buryatia     51°17′49″N   107°33′33″E
temp.,
°C
wind,
m/s
gust,
m/s
humid.,
%
clouds,
%
prec.,
mm/h
press.,
hPa
HPBL,
m
13 june, sun
sun1323:00+13n2259100 0.0 100814
02:00+12n2161100 0.0 100611
05:00+12n0060100 0.0 100610
08:00+12e0074100 0.7 1006134
11:00+19ese015246 0.0 10051080
14:00+21nnw334182 0.0 10031927
17:00+17n68485 0.0 1004711
20:00+13n51054100 0.0 1007567
14 june, mon
mon1423:00+9nnw3476100 0.0 100997
02:00+7nnw229611 0.0 101048
05:00+7wnw2286100 0.0 101079
08:00+9nnw2369100 0.1 1009478
11:00+16nw3444100 0.0 10071256
14:00+19nw2335100 0.0 10061815
17:00+17sw5443100 0.0 1005866
20:00+15sw2354100 0.0 1005165
15 june, tue
tue1523:00+12nw226368 0.1 100711
02:00+7nw71385100 0.1 1010534
05:00+7nnw41079100 0.0 1012894
08:00+8nw796478 0.1 10141115
11:00+11nw8104612 0.0 10141430
14:00+14nw783763 0.0 10142246
17:00+14nw683387 0.0 10132518
20:00+12nw57435 0.0 1014883
16 june, wed
wed1623:00+7wnw37626 0.0 1015138
02:00+7wnw612685 0.0 1015624
05:00+5wnw5127918 0.0 1016745
08:00+8wnw7137147 0.1 10151257
11:00+9nw8117097 0.0 1014984
14:00+13nw695867 0.0 10131253
17:00+13nnw585658 0.0 10121445
20:00+13nnw26612 0.0 1012562
17 june, thu
thu1723:00+8nw11813 0.0 101311
02:00+7nw2284100 0.0 101310
05:00+6nw1183100 0.0 101310
08:00+12wsw1258100 0.0 1011338
11:00+15wnw4450100 0.0 10101190
14:00+11nnw3582100 1.3 1011326
17:00+11nw127791 0.3 1010397
20:00+11nnw257818 0.4 1010298